Wind_Speed
10 18 24 27 28 31 34 33 34 33 32 29 26 24 24 21 20 19 19 19 17 15 12 10 8 6 5 7 8 12 15 20 18 17 18 16 15 14 14 11 8 6 7
7 13 24 27 31 33 35 36 37 35 34 33 32 28 28 24 22 20 19 18 16 15 13 10 8 6 5 6 5 6 12 10 7 2 4 2 4 11 13 11 12 10 7
9 9 19 30 31 34 39 41 40 37 35 33 31 31 29 25 22 22 19 18 18 16 13 11 8 8 5 4 4 4 4 6 4 2 3 2 3 4 5 12 13 11 11
6 7 17 23 31 32 35 38 38 37 35 33 35 36 34 28 24 25 21 19 19 17 15 12 10 8 6 4 3 3 3 3 6 5 5 3 4 3 1 4 10 11 12
8 10 17 25 29 31 35 38 37 36 35 35 37 36 35 31 26 24 22 20 19 18 17 14 12 9 7 5 2 2 3 3 4 5 5 3 5 4 2 1 1 6 8
9 9 20 25 27 30 33 37 38 38 38 39 39 38 37 33 28 27 25 23 21 20 19 17 14 10 8 6 4 2 2 4 5 6 4 3 2 2 2 2 1 1 2
9 9 10 19 25 33 35 37 39 40 40 41 41 40 39 35 32 30 29 27 24 23 22 21 18 14 10 8 6 3 2 4 5 6 7 6 6 5 5 4 2 2 3
8 9 13 21 25 32 37 37 40 38 41 43 43 39 38 36 35 33 31 29 28 26 24 22 18 15 12 10 8 6 4 4 5 6 6 5 5 4 3 3 3 0 2
9 11 12 23 26 30 39 42 41 37 40 43 40 40 37 37 36 33 32 30 29 28 26 22 19 16 14 13 10 7 6 5 5 5 5 3 3 3 3 3 2 1 1
7 8 11 20 25 30 36 39 40 41 42 41 40 39 39 37 35 34 33 33 31 29 27 25 23 21 17 14 13 11 8 7 7 6 5 4 4 3 3 4 4 3 1
10 8 8 15 25 28 34 39 39 38 38 41 40 41 39 38 36 35 35 34 32 30 28 28 25 23 20 18 15 12 10 9 9 8 6 6 5 2 1 1 2 2 2
8 6 6 13 21 27 29 34 35 36 39 41 41 40 37 38 38 36 36 34 34 32 31 31 28 26 22 21 18 15 12 11 11 10 10 8 6 4 3 3 3 3 4
9 8 7 12 17 22 27 30 35 37 35 37 40 40 38 38 39 39 36 33 35 36 33 35 32 30 26 24 19 15 13 12 11 11 10 10 8 7 5 3 2 1 4
8 7 6 10 19 22 26 28 30 34 33 35 36 38 38 36 37 39 38 36 36 35 36 36 35 32 28 25 21 18 14 13 13 10 9 10 9 6 5 4 2 2 5
7 7 7 5 9 15 20 23 26 28 31 32 34 37 36 36 36 36 37 36 37 36 38 36 35 32 28 27 24 19 17 16 16 12 11 10 8 7 6 5 5 5 7
5 8 8 9 14 17 19 23 25 26 29 30 31 31 32 33 34 35 36 36 37 37 36 36 36 33 31 26 22 19 19 19 18 15 13 11 10 9 9 7 6 7 8
7 7 7 10 19 22 23 24 23 23 27 29 28 29 31 31 32 33 34 36 37 36 35 36 36 35 32 27 22 20 20 20 18 16 15 13 12 11 10 8 6 7 7
6 7 9 17 18 19 21 21 21 23 26 27 28 28 29 30 31 33 36 37 36 36 37 36 36 35 30 27 23 22 21 20 18 16 16 14 13 12 11 8 5 5 5
8 12 17 20 17 14 19 20 20 21 23 26 28 30 32 33 33 35 37 37 36 35 36 37 37 35 32 26 25 25 23 21 19 17 16 15 13 12 9 7 5 2 1
13 15 17 12 6 7 18 21 22 23 25 27 29 29 31 33 34 35 36 36 35 35 35 36 36 35 30 27 26 25 24 22 20 17 16 15 13 11 8 5 3 2 1
15 15 14 11 6 4 13 15 17 20 19 20 23 25 28 30 30 30 32 34 34 32 33 35 34 31 29 29 27 25 24 23 21 20 19 17 14 10 7 5 3 2 1
21 20 15 10 6 3 7 7 10 10 12 15 18 22 25 26 29 31 30 30 32 32 32 33 33 31 29 27 27 24 22 21 21 21 18 16 13 9 7 7 5 4 3
14 16 14 11 6 3 2 4 7 11 13 14 17 18 21 24 28 31 31 30 31 31 31 31 29 32 32 30 26 25 23 20 19 17 16 15 12 9 10 9 8 6 5
15 15 16 14 12 8 6 7 8 12 14 16 17 19 23 24 25 27 29 30 29 28 29 28 26 30 35 33 30 27 24 21 19 18 17 14 12 11 11 11 10 8 6
19 18 17 15 16 16 14 12 12 14 16 17 19 22 24 27 27 29 34 37 38 42 41 40 39 38 36 43 38 35 31 28 24 22 18 16 14 16 15 13 11 11 8
18 20 20 22 21 17 16 14 14 16 19 21 22 24 26 28 28 29 28 30 34 39 40 37 38 39 38 39 38 34 30 27 25 23 20 17 17 19 18 16 15 14 11
Wind_Direction
194 184 189 198 198 198 198 194 192 192 193 195 195 194 191 188 185 179 180 180 181 180 187 178 168 160 150 129 105 92 108 116 115 104 93 88 89 87 81 76 66 69 79
167 165 183 194 199 198 200 198 199 197 200 202 202 198 194 193 191 186 185 188 187 185 189 188 178 171 159 147 143 138 124 138 187 217 135 133 86 76 73 70 67 72 81
179 166 178 192 196 194 200 202 201 199 202 204 202 195 190 193 188 186 187 185 186 186 195 196 196 185 182 170 144 127 134 143 103 154 199 119 208 152 88 74 70 78 83
179 171 183 191 195 198 202 203 201 200 202 202 196 194 190 189 193 192 191 186 189 192 199 200 198 194 200 196 160 120 110 129 155 113 88 111 145 161 199 108 78 82 83
188 190 189 195 198 200 202 203 201 201 201 199 200 198 199 200 197 194 192 190 190 198 200 202 202 201 203 199 177 112 91 101 126 158 155 122 92 105 134 173 109 99 94
199 191 197 197 196 200 202 204 201 203 203 199 204 206 206 201 197 191 191 194 195 195 197 199 202 209 207 201 195 166 88 86 94 103 123 156 147 119 118 114 214 255 162
198 184 177 184 184 194 199 202 203 203 206 206 207 210 210 207 204 197 192 190 192 196 197 199 200 206 205 200 188 173 123 101 100 109 116 116 115 134 142 139 160 238 235
202 196 188 188 188 191 198 198 203 204 206 210 211 213 215 212 212 206 200 200 203 206 201 200 202 202 200 196 194 173 147 123 114 119 122 120 106 102 116 137 136 235 273
204 216 192 191 190 189 196 203 203 204 209 213 212 214 215 214 212 210 209 208 209 209 204 203 204 205 202 202 194 186 169 156 140 138 136 128 100 79 80 81 77 127 296
227 214 204 195 196 196 200 207 208 206 209 213 213 215 217 217 215 213 210 211 214 210 205 203 205 202 202 201 198 190 176 167 162 160 155 137 117 99 80 62 52 43 139
231 219 204 204 204 203 204 209 207 205 207 214 212 215 217 217 216 215 215 214 216 214 208 205 206 207 202 201 198 194 179 180 170 167 170 158 150 129 67 21 13 16 4
254 269 194 196 201 203 204 209 210 208 210 211 214 215 217 216 216 215 215 215 215 216 212 209 210 206 205 206 201 195 184 195 180 171 176 174 169 151 124 103 100 76 10
254 237 200 206 203 202 206 208 212 213 211 211 212 215 217 215 215 215 214 216 216 217 212 210 208 207 208 202 200 198 192 194 192 177 182 185 180 165 148 148 140 49 346
249 244 245 223 215 208 210 210 211 216 213 210 208 211 216 216 216 215 213 215 215 213 217 213 210 210 206 203 198 193 192 190 194 180 183 189 190 191 186 192 210 306 334
289 263 270 285 254 223 215 218 217 213 214 209 208 214 216 215 214 214 211 214 212 214 217 210 208 208 204 200 196 196 191 194 193 186 187 195 205 212 213 222 250 292 320
348 308 279 263 253 235 221 219 215 212 210 208 210 212 211 210 209 210 208 209 206 210 210 208 207 201 201 198 197 200 194 196 199 194 196 204 209 210 211 227 253 292 310
313 301 281 264 255 244 237 221 209 210 206 208 208 206 208 208 207 205 206 204 204 205 204 204 203 200 199 194 193 195 201 202 199 198 198 197 201 204 211 222 253 289 305
306 309 301 300 291 258 231 215 206 204 202 202 203 203 203 203 204 204 205 201 202 203 202 202 201 197 194 192 194 194 201 205 202 201 202 205 201 205 210 224 259 297 309
311 310 324 315 292 255 216 199 189 197 198 200 202 206 207 203 202 200 200 201 200 200 201 203 197 193 191 190 188 196 200 202 200 199 205 208 203 203 210 234 265 285 308
352 345 353 340 311 216 192 186 187 191 200 207 209 207 205 208 206 203 200 202 202 200 199 196 196 194 193 190 193 200 201 200 199 201 201 201 199 199 217 236 233 227 209
4 10 19 20 16 165 185 185 191 204 210 213 213 211 210 213 207 201 201 199 195 194 193 192 190 192 196 192 195 200 200 200 192 190 185 187 193 201 211 215 211 208 209
16 17 19 26 46 126 183 192 206 220 220 217 215 213 210 203 204 200 196 195 190 184 180 183 185 192 195 198 194 199 202 200 198 195 193 193 195 199 199 201 199 199 226
23 23 16 10 19 13 286 247 236 224 217 211 213 210 208 201 202 199 189 182 186 179 176 180 181 188 193 194 200 199 198 200 201 202 195 190 193 195 197 197 200 207 209
16 10 10 6 354 336 292 265 254 228 216 211 208 207 202 197 199 200 195 185 180 179 177 179 185 186 191 194 194 196 195 196 190 184 183 190 197 203 196 196 203 205 202
26 29 21 1 346 348 335 302 271 239 223 217 212 204 207 206 198 206 202 202 207 205 194 197 195 186 190 200 197 193 192 191 188 180 183 191 196 191 193 198 201 201 203
14 13 10 9 0 352 344 333 284 256 233 223 219 215 211 207 206 203 204 210 219 215 216 215 215 213 212 203 201 199 198 194 189 188 194 200 201 198 199 202 204 205 207
Height
808 815 820 824 828 831 838 843 847 852 856 859 863 867 871 876 880 880 883 886 888 890 893 895 897 898 899 900 901 901 902 904 904 904 907 907 906 906 906 905 904 902 901
808 813 817 821 824 828 834 839 843 848 851 855 859 864 868 874 878 880 882 885 888 890 891 894 896 897 898 900 901 902 902 904 905 905 906 908 910 908 908 907 905 903 902
805 810 813 815 819 822 825 830 836 842 847 852 856 861 866 872 875 877 881 884 886 889 891 893 895 897 898 899 900 901 901 901 903 903 904 907 908 909 910 908 907 906 904
801 804 807 811 813 819 825 830 835 840 844 849 853 857 860 865 869 873 878 882 885 888 891 893 895 896 898 899 899 900 900 900 900 902 902 901 902 906 910 909 908 907 905
796 798 801 805 811 816 820 825 831 837 842 847 851 854 859 863 867 872 876 880 883 886 889 891 893 895 897 898 899 899 899 899 899 899 901 902 902 903 904 907 908 908 907
790 794 797 802 807 812 817 822 827 832 837 841 846 849 854 859 863 866 872 877 880 883 887 889 892 894 896 897 898 898 899 899 898 898 900 901 902 903 904 905 906 907 907
783 788 792 796 802 806 812 818 823 827 832 837 840 843 849 855 859 862 867 872 876 880 883 886 888 891 894 897 897 898 898 899 898 899 900 901 902 903 904 904 906 906 906
777 780 784 788 793 799 806 811 815 821 826 830 834 841 847 852 855 859 864 867 871 876 880 883 887 889 892 894 896 896 897 899 898 899 900 901 901 903 903 903 903 905 904
772 773 778 782 787 793 797 802 808 815 820 824 830 836 840 847 850 856 861 865 868 872 876 880 884 887 889 892 894 896 895 897 898 898 900 901 901 901 902 901 902 903 903
770 771 772 776 781 787 792 798 802 807 812 818 824 830 834 841 846 852 856 860 865 869 872 876 880 883 887 890 891 893 895 895 897 898 899 900 901 901 901 901 901 902 902
765 766 769 773 777 783 786 790 795 800 806 811 816 822 827 835 841 846 851 855 860 865 869 873 877 881 883 886 889 892 892 895 895 897 899 900 901 901 901 901 901 901 901
764 765 769 770 773 777 782 785 790 794 797 803 810 814 821 827 833 839 844 850 855 858 863 869 873 877 880 884 886 889 890 894 894 894 897 899 900 901 901 901 901 901 900
762 760 764 765 767 771 775 779 783 787 792 797 803 809 814 819 825 831 838 845 849 853 857 862 866 870 874 879 884 886 888 890 893 892 895 897 899 899 899 900 901 900 899
759 759 760 759 761 765 768 772 777 782 788 792 798 802 807 814 820 824 830 837 842 847 853 856 861 865 870 875 881 883 886 888 892 890 893 895 897 897 897 899 899 899 898
760 759 758 759 760 763 766 769 773 777 783 787 792 795 801 807 813 818 824 829 835 840 845 850 856 861 866 871 875 879 881 885 888 889 891 893 894 895 895 897 897 897 896
765 761 758 756 755 756 759 763 767 772 779 784 788 793 797 803 808 813 818 823 829 833 839 844 849 855 861 866 872 876 877 881 883 884 887 890 891 892 893 895 895 895 893
763 762 760 756 753 753 756 758 764 769 774 779 784 788 793 799 803 809 814 818 822 827 833 838 843 849 855 861 866 870 874 877 878 881 883 886 887 889 891 892 893 892 890
761 759 754 750 748 748 750 754 760 764 769 774 779 784 789 794 798 804 808 812 816 821 825 833 839 845 852 857 861 867 870 874 875 877 880 881 884 886 888 890 890 889 889
759 756 752 746 742 743 746 750 755 760 765 769 773 777 782 787 793 797 801 806 811 816 821 827 834 841 847 852 857 862 867 870 872 874 876 879 881 883 885 887 887 887 887
758 754 749 745 742 742 745 748 752 756 760 764 768 773 778 782 786 791 796 801 807 812 817 824 831 836 842 849 853 858 862 866 869 871 873 876 878 880 883 884 884 885 885
759 755 751 749 747 748 749 752 755 757 759 763 767 770 774 780 785 790 794 798 803 809 816 822 828 834 839 844 849 854 857 860 864 866 869 872 875 877 879 880 882 883 884
758 756 755 754 753 753 755 757 758 760 762 765 768 771 773 777 784 785 792 798 800 807 813 819 825 831 836 842 846 850 854 857 860 863 866 869 871 873 875 877 879 880 881
765 762 760 759 758 759 760 760 760 761 763 765 769 770 775 777 778 783 787 793 800 803 809 816 821 825 832 837 843 847 850 854 857 860 863 866 868 871 873 874 875 877 879
765 764 762 761 761 761 761 761 761 763 763 765 766 770 773 775 778 783 786 789 795 799 803 809 817 820 826 831 837 842 847 851 854 858 861 864 866 868 870 871 873 874 875
766 766 765 763 762 761 760 760 760 761 761 762 764 766 769 772 772 778 778 781 785 787 791 797 803 809 816 819 826 833 839 844 849 854 857 860 862 865 867 869 870 871 873
767 766 765 764 762 760 759 757 757 757 758 759 760 761 764 767 769 773 777 780 780 782 786 791 797 802 807 814 822 828 834 840 845 849 852 855 858 860 863 865 867 868 870